Weather History for KDVO - June, 2013

Change the Weather History Date:

Sunday, June 9, 2013

  Actual Average (KAPC) Record (KAPC)
Temperature  
Mean Temperature 60 °F 63 °F  
Max Temperature 66 °F 78 °F 94 °F (2008)
Min Temperature 55 °F 49 °F 40 °F (2012)
Degree Days  
Heating Degree Days 4    
Month to date heating degree days  
Since 1 June heating degree days  
Since 1 July heating degree days  
Cooling Degree Days 0    
Month to date cooling degree days  
Year to date cooling degree days  
Since 1 June cooling degree days  
Growing Degree Days 10 (Base 50)    
Moisture  
Dew Point 55 °F    
Average Humidity 84    
Maximum Humidity 100    
Minimum Humidity 64    
Precipitation  
Precipitation 0.00 in - 0.76 in (1929)
Month to date precipitation  
Year to date precipitation  
Sea Level Pressure  
Sea Level Pressure 29.87 in    
Wind  
Wind Speed 10 mph (West)    
Max Wind Speed 15 mph    
Max Gust Speed 22 mph    
Visibility 10 miles    
Events      
T = Trace of Precipitation, MM = Missing Value Source: NWS Daily Summary

Daily Weather History Graph

Daily Weather History Graph

Search for Another Location

Airport or City:

Trip Planner

Search our weather history database for the weather conditions in past years. The results will help you decide how hot, cold, wet, or windy it might be!

Date:

Astronomy

Jun. 09, 2013 Rise Set
Actual Time 5:46 AM PDT 8:32 PM PDT
Civil Twilight 5:15 AM PDT 9:03 PM PDT
Nautical Twilight 4:36 AM PDT 9:43 PM PDT
Astronomical Twilight 3:51 AM PDT 10:27 PM PDT
Moon 6:47 AM PDT (6/9) 9:24 PM PDT (6/9)
Length of Visible Light 15h 48m
Length of Day
14h 45m
New Moon, 1% of the Moon is Illuminated
Jun 9
New Moon
Jun 16
First Quarter
Jun 23
Full
Jun 29
Last Quarter
Jul 8
New

Hourly Weather History & Observations

Time (PDT) Temp. Dew Point Humidity Pressure Visibility Wind Dir Wind Speed Gust Speed Precip Events Conditions
12:15 AM 55.4 °F 55.4 °F 100% 29.83 in 10.0 mi NNW 12.7 mph - N/A   Clear
12:35 AM 55.4 °F 55.4 °F 100% 29.83 in 10.0 mi NNW 10.4 mph - N/A   Clear
12:55 AM 55.4 °F 55.4 °F 100% 29.83 in 10.0 mi NNW 11.5 mph - N/A   Clear
1:15 AM 55.4 °F 55.4 °F 100% 29.83 in 10.0 mi NNW 11.5 mph - N/A   Clear
1:35 AM 57.2 °F 57.2 °F 100% 29.83 in 10.0 mi NNW 9.2 mph - N/A   Clear
1:55 AM 57.2 °F 57.2 °F 100% 29.83 in 10.0 mi NNW 11.5 mph - N/A   Clear
2:15 AM 57.2 °F 57.2 °F 100% 29.84 in 10.0 mi NNW 9.2 mph - N/A   Unknown
2:35 AM 57.2 °F 57.2 °F 100% 29.84 in 10.0 mi NNW 10.4 mph - N/A   Unknown
2:55 AM 57.2 °F 57.2 °F 100% 29.84 in 10.0 mi NNW 10.4 mph - N/A   Unknown
3:15 AM 57.2 °F 57.2 °F 100% 29.84 in 10.0 mi NNW 10.4 mph - N/A   Unknown
3:35 AM 57.2 °F 57.2 °F 100% 29.84 in 10.0 mi NNW 9.2 mph - N/A   Unknown
3:55 AM 55.4 °F 55.4 °F 100% 29.84 in 10.0 mi NNW 9.2 mph - N/A   Unknown
4:15 AM 55.4 °F 55.4 °F 100% 29.84 in 10.0 mi North 6.9 mph - N/A   Unknown
4:35 AM 55.4 °F 55.4 °F 100% 29.83 in 10.0 mi NNW 8.1 mph - N/A   Unknown
4:55 AM 55.4 °F 55.4 °F 100% 29.84 in 10.0 mi NNW 8.1 mph - N/A   Partly Cloudy
5:15 AM 57.2 °F 57.2 °F 100% 29.84 in 10.0 mi NNW 6.9 mph - N/A   Mostly Cloudy
5:35 AM 57.2 °F 57.2 °F 100% 29.84 in 10.0 mi NW 8.1 mph - N/A   Overcast
5:55 AM 57.2 °F 57.2 °F 100% 29.85 in 10.0 mi WNW 6.9 mph - N/A   Overcast
6:15 AM 57.2 °F 57.2 °F 100% 29.86 in 10.0 mi NW 6.9 mph - N/A   Overcast
6:35 AM 57.2 °F 55.4 °F 94% 29.86 in 10.0 mi WNW 5.8 mph - N/A   Overcast
6:55 AM 57.2 °F 55.4 °F 94% 29.86 in 10.0 mi WNW 4.6 mph - N/A   Overcast
7:15 AM 59.0 °F 55.4 °F 88% 29.86 in 10.0 mi West 5.8 mph - N/A   Overcast
7:35 AM 59.0 °F 55.4 °F 88% 29.86 in 10.0 mi WSW 9.2 mph - N/A   Overcast
7:55 AM 59.0 °F 55.4 °F 88% 29.87 in 10.0 mi West 5.8 mph - N/A   Overcast
8:15 AM 60.8 °F 55.4 °F 82% 29.87 in 10.0 mi West 8.1 mph - N/A   Overcast
8:35 AM 60.8 °F 55.4 °F 82% 29.88 in 10.0 mi WSW 6.9 mph - N/A   Overcast
8:55 AM 60.8 °F 55.4 °F 82% 29.88 in 10.0 mi WSW 8.1 mph - N/A   Overcast
9:15 AM 62.6 °F 55.4 °F 77% 29.88 in 10.0 mi WSW 8.1 mph - N/A   Overcast
9:35 AM 62.6 °F 55.4 °F 77% 29.88 in 10.0 mi SW 6.9 mph - N/A   Mostly Cloudy
9:55 AM 64.4 °F 55.4 °F 73% 29.88 in 10.0 mi South 4.6 mph - N/A   Scattered Clouds
10:15 AM 64.4 °F 55.4 °F 73% 29.87 in 10.0 mi SW 5.8 mph - N/A   Scattered Clouds
10:35 AM 66.2 °F 55.4 °F 68% 29.88 in 10.0 mi SW 9.2 mph - N/A   Scattered Clouds
10:55 AM 66.2 °F 55.4 °F 68% 29.88 in 10.0 mi WSW 10.4 mph - N/A   Partly Cloudy
11:15 AM 66.2 °F 55.4 °F 68% 29.88 in 10.0 mi West 6.9 mph - N/A   Clear
11:35 AM 66.2 °F 55.4 °F 68% 29.88 in 10.0 mi West 9.2 mph - N/A   Clear
11:55 AM 66.2 °F 55.4 °F 68% 29.89 in 10.0 mi WSW 13.8 mph 18.4 mph N/A   Clear
12:15 PM 66.2 °F 55.4 °F 68% 29.89 in 10.0 mi WSW 15.0 mph 20.7 mph N/A   Clear
12:35 PM 66.2 °F 55.4 °F 68% 29.89 in 10.0 mi WSW 13.8 mph 18.4 mph N/A   Partly Cloudy
12:55 PM 66.2 °F 53.6 °F 64% 29.90 in 10.0 mi WSW 12.7 mph 16.1 mph N/A   Partly Cloudy
1:15 PM 66.2 °F 55.4 °F 68% 29.90 in 10.0 mi WSW 11.5 mph 19.6 mph N/A   Partly Cloudy
1:35 PM 66.2 °F 55.4 °F 68% 29.90 in 10.0 mi WSW 12.7 mph 21.9 mph N/A   Partly Cloudy
1:55 PM 66.2 °F 53.6 °F 64% 29.90 in 10.0 mi WSW 15.0 mph - N/A   Partly Cloudy
2:15 PM 64.4 °F 53.6 °F 68% 29.89 in 10.0 mi West 11.5 mph 18.4 mph N/A   Partly Cloudy
2:35 PM 66.2 °F 53.6 °F 64% 29.89 in 10.0 mi West 10.4 mph - N/A   Partly Cloudy
2:55 PM 66.2 °F 53.6 °F 64% 29.89 in 10.0 mi West 10.4 mph - N/A   Clear
3:15 PM 66.2 °F 55.4 °F 68% 29.88 in 10.0 mi West 13.8 mph - N/A   Partly Cloudy
3:35 PM 66.2 °F 55.4 °F 68% 29.88 in 10.0 mi West 11.5 mph 19.6 mph N/A   Partly Cloudy
3:55 PM 66.2 °F 55.4 °F 68% 29.87 in 10.0 mi WNW 12.7 mph 18.4 mph N/A   Clear
4:15 PM 66.2 °F 55.4 °F 68% 29.88 in 10.0 mi West 11.5 mph 20.7 mph N/A   Mostly Cloudy
4:35 PM 64.4 °F 53.6 °F 68% 29.88 in 10.0 mi West 15.0 mph 20.7 mph N/A   Mostly Cloudy
4:55 PM 64.4 °F 53.6 °F 68% 29.88 in 10.0 mi WSW 8.1 mph - N/A   Overcast
5:15 PM 64.4 °F 53.6 °F 68% 29.88 in 10.0 mi WSW 12.7 mph - N/A   Overcast
5:35 PM 62.6 °F 55.4 °F 77% 29.88 in 10.0 mi WSW 13.8 mph - N/A   Overcast
5:55 PM 62.6 °F 55.4 °F 77% 29.88 in 10.0 mi West 11.5 mph - N/A   Overcast
6:15 PM 62.6 °F 55.4 °F 77% 29.88 in 10.0 mi West 12.7 mph - N/A   Overcast
6:35 PM 60.8 °F 55.4 °F 82% 29.88 in 10.0 mi WSW 11.5 mph - N/A   Overcast
6:55 PM 60.8 °F 55.4 °F 82% 29.88 in 10.0 mi West 9.2 mph 16.1 mph N/A   Overcast
7:15 PM 59.0 °F 55.4 °F 88% 29.87 in 10.0 mi West 11.5 mph 17.3 mph N/A   Overcast
7:35 PM 59.0 °F 53.6 °F 82% 29.87 in 10.0 mi West 10.4 mph - N/A   Overcast
7:55 PM 59.0 °F 55.4 °F 88% 29.87 in 10.0 mi WSW 10.4 mph - N/A   Overcast
8:15 PM 59.0 °F 55.4 °F 88% 29.87 in 10.0 mi WSW 11.5 mph - N/A   Overcast
8:35 PM 59.0 °F 55.4 °F 88% 29.88 in 10.0 mi WSW 6.9 mph - N/A   Overcast
8:55 PM 59.0 °F 55.4 °F 88% 29.88 in 10.0 mi West 8.1 mph - N/A   Overcast
9:15 PM 59.0 °F 55.4 °F 88% 29.88 in 10.0 mi West 8.1 mph - N/A   Overcast
9:35 PM 57.2 °F 55.4 °F 94% 29.88 in 10.0 mi West 8.1 mph - N/A   Overcast
9:55 PM 57.2 °F 55.4 °F 94% 29.88 in 10.0 mi Calm Calm - N/A   Overcast
10:15 PM 57.2 °F 55.4 °F 94% 29.90 in 10.0 mi WSW 6.9 mph - N/A   Unknown
10:35 PM 57.2 °F 55.4 °F 94% 29.89 in 10.0 mi WNW 8.1 mph - N/A   Unknown
10:55 PM 57.2 °F 55.4 °F 94% 29.89 in 10.0 mi WSW 8.1 mph - N/A   Unknown
11:15 PM 57.2 °F 55.4 °F 94% 29.89 in 10.0 mi WSW 9.2 mph - N/A   Unknown
11:35 PM 57.2 °F 55.4 °F 94% 29.89 in 10.0 mi WSW 6.9 mph - N/A   Unknown
11:55 PM 57.2 °F 55.4 °F 94% 29.89 in 10.0 mi WSW 8.1 mph - N/A   Unknown